• In Germany
  • List of Countries
  • For 7 days
  • Water Temperature
  • Satellite Maps
  • Weather Map
  • Weather Widgets
  • user-avatar
    Login

    Hourly Weather Herāt

    Today, 26 June, Monday

    Time Temperature Precipitation Wind Pressure Humidity
    00:00 +28°C° 0 mm 8 mps 676 mmHg 26%
    01:00 +27°C° 0 mm 7 mps 676 mmHg 27%
    02:00 +27°C° 0 mm 7 mps 676 mmHg 27%
    03:00 +26°C° 0 mm 7 mps 676 mmHg 28%
    04:00 +26°C° 0 mm 6 mps 676 mmHg 28%
    05:00 +27°C° 0 mm 7 mps 677 mmHg 27%
    06:00 +28°C° 0 mm 9 mps 677 mmHg 25%
    07:00 +29°C° 0 mm 10 mps 678 mmHg 24%
    08:00 +31°C° 0 mm 11 mps 678 mmHg 22%
    09:00 +32°C° 0 mm 12 mps 679 mmHg 20%
    10:00 +34°C° 0 mm 12 mps 679 mmHg 18%
    11:00 +34°C° 0 mm 12 mps 679 mmHg 17%
    12:00 +36°C° 0 mm 12 mps 679 mmHg 17%
    13:00 +37°C° 0 mm 13 mps 679 mmHg 16%
    14:00 +37°C° 0 mm 13 mps 679 mmHg 17%
    15:00 +36°C° 0 mm 13 mps 679 mmHg 17%
    16:00 +36°C° 0 mm 13 mps 679 mmHg 18%
    17:00 +34°C° 0 mm 12 mps 679 mmHg 20%
    18:00 +33°C° 0 mm 11 mps 679 mmHg 22%
    19:00 +32°C° 0 mm 11 mps 679 mmHg 25%
    20:00 +31°C° 0 mm 11 mps 679 mmHg 25%
    21:00 +31°C° 0 mm 11 mps 679 mmHg 26%
    22:00 +29°C° 0 mm 11 mps 679 mmHg 27%
    23:00 +28°C° 0 mm 11 mps 679 mmHg 26%

    Tomorrow, 27 June, Tuesday

    Time Temperature Precipitation Wind Pressure Humidity
    00:00 +28°C° 0 mm 10 mps 679 mmHg 26%
    01:00 +27°C° 0 mm 10 mps 679 mmHg 26%
    02:00 +26°C° 0 mm 10 mps 678 mmHg 27%
    03:00 +26°C° 0 mm 9 mps 678 mmHg 29%
    04:00 +24°C° 0 mm 8 mps 678 mmHg 30%
    05:00 +26°C° 0 mm 9 mps 678 mmHg 29%
    06:00 +27°C° 0 mm 10 mps 679 mmHg 27%
    07:00 +28°C° 0 mm 11 mps 679 mmHg 26%
    08:00 +29°C° 0 mm 12 mps 679 mmHg 24%
    09:00 +31°C° 0 mm 12 mps 679 mmHg 22%
    10:00 +33°C° 0 mm 13 mps 679 mmHg 20%
    11:00 +34°C° 0 mm 14 mps 679 mmHg 19%
    12:00 +34°C° 0 mm 14 mps 679 mmHg 17%
    13:00 +36°C° 0 mm 14 mps 679 mmHg 16%
    14:00 +36°C° 0 mm 14 mps 678 mmHg 17%
    15:00 +36°C° 0 mm 14 mps 678 mmHg 17%
    16:00 +34°C° 0 mm 14 mps 678 mmHg 18%
    17:00 +33°C° 0 mm 14 mps 678 mmHg 20%
    18:00 +32°C° 0 mm 13 mps 678 mmHg 21%
    19:00 +31°C° 0 mm 13 mps 678 mmHg 23%
    20:00 +29°C° 0 mm 13 mps 678 mmHg 24%
    21:00 +28°C° 0 mm 13 mps 678 mmHg 24%
    22:00 +27°C° 0 mm 12 mps 678 mmHg 25%
    23:00 +26°C° 0 mm 11 mps 678 mmHg 25%

    Day after tomorrow, 28 June, Wednesday

    Time Temperature Precipitation Wind Pressure Humidity
    00:00 +26°C° 0 mm 10 mps 678 mmHg 24%
    01:00 +24°C° 0 mm 9 mps 677 mmHg 24%
    02:00 +23°C° 0 mm 9 mps 677 mmHg 25%
    03:00 +23°C° 0 mm 8 mps 677 mmHg 25%
    04:00 +22°C° 0 mm 8 mps 677 mmHg 26%
    05:00 +23°C° 0 mm 8 mps 677 mmHg 25%
    06:00 +24°C° 0 mm 9 mps 677 mmHg 24%
    07:00 +26°C° 0 mm 9 mps 678 mmHg 23%
    08:00 +28°C° 0 mm 10 mps 678 mmHg 21%
    09:00 +29°C° 0 mm 10 mps 678 mmHg 19%
    10:00 +32°C° 0 mm 10 mps 678 mmHg 17%
    11:00 +33°C° 0 mm 10 mps 678 mmHg 16%
    12:00 +34°C° 0 mm 11 mps 678 mmHg 15%
    13:00 +36°C° 0 mm 11 mps 677 mmHg 14%
    14:00 +36°C° 0 mm 11 mps 677 mmHg 14%
    15:00 +36°C° 0 mm 11 mps 677 mmHg 14%
    16:00 +36°C° 0 mm 11 mps 676 mmHg 14%
    17:00 +34°C° 0 mm 11 mps 676 mmHg 15%
    18:00 +33°C° 0 mm 11 mps 676 mmHg 16%
    19:00 +32°C° 0 mm 10 mps 676 mmHg 17%
    20:00 +31°C° 0 mm 10 mps 676 mmHg 18%
    21:00 +29°C° 0 mm 9 mps 676 mmHg 20%
    22:00 +28°C° 0 mm 9 mps 676 mmHg 21%
    23:00 +28°C° 0 mm 9 mps 676 mmHg 22%

    29 June, Thursday

    Time Temperature Precipitation Wind Pressure Humidity
    00:00 +27°C° 0 mm 9 mps 676 mmHg 23%
    01:00 +26°C° 0 mm 8 mps 675 mmHg 23%
    02:00 +26°C° 0 mm 8 mps 675 mmHg 24%
    03:00 +24°C° 0 mm 7 mps 675 mmHg 25%
    04:00 +24°C° 0 mm 7 mps 675 mmHg 25%
    05:00 +26°C° 0 mm 7 mps 675 mmHg 24%
    06:00 +27°C° 0 mm 7 mps 675 mmHg 22%
    07:00 +28°C° 0 mm 7 mps 676 mmHg 21%
    08:00 +31°C° 0 mm 8 mps 676 mmHg 18%
    09:00 +33°C° 0 mm 8 mps 676 mmHg 15%
    10:00 +35°C° 0 mm 9 mps 677 mmHg 13%
    11:00 +37°C° 0 mm 9 mps 677 mmHg 12%
    12:00 +38°C° 0 mm 9 mps 676 mmHg 11%
    13:00 +39°C° 0 mm 10 mps 676 mmHg 10%
    14:00 +39°C° 0 mm 10 mps 676 mmHg 10%
    15:00 +39°C° 0 mm 11 mps 675 mmHg 10%
    16:00 +39°C° 0 mm 11 mps 675 mmHg 10%
    17:00 +38°C° 0 mm 11 mps 675 mmHg 11%
    18:00 +36°C° 0 mm 10 mps 675 mmHg 12%
    19:00 +34°C° 0 mm 10 mps 675 mmHg 13%
    20:00 +33°C° 0 mm 9 mps 675 mmHg 14%
    21:00 +32°C° 0 mm 9 mps 675 mmHg 15%
    22:00 +31°C° 0 mm 8 mps 675 mmHg 15%
    23:00 +29°C° 0 mm 7 mps 675 mmHg 16%

    30 June, Friday

    Time Temperature Precipitation Wind Pressure Humidity
    00:00 +28°C° 0 mm 7 mps 674 mmHg 16%
    01:00 +28°C° 0 mm 6 mps 674 mmHg 17%
    02:00 +27°C° 0 mm 6 mps 674 mmHg 17%
    03:00 +26°C° 0 mm 6 mps 674 mmHg 17%
    04:00 +26°C° 0 mm 5 mps 673 mmHg 18%
    05:00 +27°C° 0 mm 6 mps 674 mmHg 16%
    06:00 +28°C° 0 mm 7 mps 674 mmHg 15%
    07:00 +31°C° 0 mm 8 mps 675 mmHg 13%
    08:00 +32°C° 0 mm 9 mps 675 mmHg 12%
    09:00 +34°C° 0 mm 9 mps 675 mmHg 10%
    10:00 +36°C° 0 mm 10 mps 676 mmHg 9%
    11:00 +37°C° 0 mm 11 mps 675 mmHg 8%
    12:00 +38°C° 0 mm 11 mps 675 mmHg 8%
    13:00 +39°C° 0 mm 11 mps 675 mmHg 7%
    14:00 +39°C° 0 mm 11 mps 675 mmHg 8%
    15:00 +39°C° 0 mm 12 mps 674 mmHg 8%
    16:00 +39°C° 0 mm 12 mps 674 mmHg 8%
    17:00 +37°C° 0 mm 11 mps 674 mmHg 9%
    18:00 +36°C° 0 mm 11 mps 674 mmHg 10%
    19:00 +34°C° 0 mm 10 mps 674 mmHg 11%
    20:00 +33°C° 0 mm 9 mps 675 mmHg 12%
    21:00 +32°C° 0 mm 9 mps 675 mmHg 12%
    22:00 +31°C° 0 mm 8 mps 675 mmHg 13%
    23:00 +29°C° 0 mm 8 mps 675 mmHg 14%

    1 July, Saturday

    Time Temperature Precipitation Wind Pressure Humidity
    00:00 +29°C° 0 mm 7 mps 674 mmHg 15%
    01:00 +28°C° 0 mm 7 mps 674 mmHg 17%
    02:00 +27°C° 0 mm 7 mps 674 mmHg 17%
    03:00 +27°C° 0 mm 6 mps 674 mmHg 18%
    04:00 +26°C° 0 mm 6 mps 674 mmHg 19%
    05:00 +27°C° 0 mm 7 mps 675 mmHg 18%
    06:00 +29°C° 0 mm 8 mps 675 mmHg 18%
    07:00 +31°C° 0 mm 9 mps 676 mmHg 17%
    08:00 +32°C° 0 mm 11 mps 676 mmHg 16%
    09:00 +33°C° 0 mm 12 mps 676 mmHg 15%
    10:00 +36°C° 0 mm 13 mps 677 mmHg 14%
    11:00 +36°C° 0 mm 13 mps 676 mmHg 13%
    12:00 +37°C° 0 mm 13 mps 676 mmHg 12%
    13:00 +38°C° 0 mm 13 mps 676 mmHg 11%
    14:00 +38°C° 0 mm 13 mps 676 mmHg 11%
    15:00 +38°C° 0 mm 13 mps 676 mmHg 11%
    16:00 +38°C° 0 mm 13 mps 676 mmHg 11%
    17:00 +36°C° 0 mm 12 mps 676 mmHg 12%
    18:00 +34°C° 0 mm 11 mps 676 mmHg 13%
    19:00 +33°C° 0 mm 10 mps 676 mmHg 14%
    20:00 +32°C° 0 mm 10 mps 676 mmHg 14%
    21:00 +32°C° 0 mm 10 mps 676 mmHg 15%
    22:00 +31°C° 0 mm 10 mps 676 mmHg 16%
    23:00 +29°C° 0 mm 9 mps 676 mmHg 16%
    Show more